Tracking 19709 objects as of 17-Jun-2019
HD Live streaming from Space Station
objects crossing your sky now

DELTA 1 DEB

Track DELTA 1 DEB now!
10-day predictions


NORAD ID: 2775
Int'l Code: 1966-087D
Perigee: 1,286.3 km
Apogee: 1,478.8 km
Inclination: 101.2 °
Period: 113.2 minutes
Semi major axis: 7753 km
RCS: 0.079 m2 (small)
Launch date: October 2, 1966
Source: United States (US)
Launch site: AIR FORCE WESTERN TEST RANGE (AFWTR)

Note: This is SATELLITE DEBRIS
aabbcc
Your satellite tracking list
Your tracking list is empty




NASA's NSSDC Master Catalog

Two Line Element Set (TLE):
1  2775U 66087D   19166.72246671 -.00000035 +00000-0 +46500-4 0  9994
2  2775 101.2223 228.3307 0124121 341.4789 135.9934 12.71609135445132
Source of the keplerian elements: AFSPC